{"data":{"norad_id":66604,"epoch":"2026-09-20T19:45:37.941984Z","epoch_age_seconds":58531,"freshness":"FRESH","line1":"1 66604U 25270S   26263.82335581  .00010967  00000+0  40727-3 0  9997","line2":"2 66604  43.0051  33.7669 0001833 269.8126  90.2516 15.27594893 47557","mean_motion":15.27594893,"eccentricity":0.0001833,"inclination_deg":43.0051,"raan_deg":33.7669,"arg_perigee_deg":269.8126,"mean_anomaly_deg":90.2516,"bstar":0.00040727,"rev_number":4755,"period_min":94.265829677659,"perigee_km":481.74685416503,"apogee_km":484.26214863944,"semimajor_km":6861.1415014022,"source":"CELESTRAK","updated_at":"2026-09-21T09:00:35.979064Z"}}